Theta_e
342 343 345 349 349 348 347 347 346 346 345 345 344 344 344 343 343 344 347 348 347 348 347 347 346 346 345 343 342 341 344 348 347 344 343 342 341 343 343 342 342 341 341 341 341 342 343 342 344 346 347 346 347 347 347 347 348 347 348 347 347 347 347 347 346 346 346 346 346 346 346 346 346 345 345 344 345 346 344 344 343 340 339 341 345
342 344 345 346 349 348 347 346 346 345 345 345 343 342 342 342 342 344 347 347 347 347 347 346 346 345 343 342 342 342 345 347 345 344 342 341 341 340 341 341 342 342 342 342 341 341 342 342 343 343 345 346 346 346 346 347 346 346 346 346 346 347 347 346 346 346 346 345 345 345 344 345 345 345 345 346 346 345 343 343 343 340 339 344 344
343 344 345 346 349 349 347 347 347 347 345 343 343 343 343 343 344 345 347 347 347 347 346 347 346 345 343 342 342 341 345 346 345 343 341 341 340 340 338 339 339 340 340 341 341 341 341 341 341 342 342 344 344 344 346 346 345 345 345 345 345 345 345 346 346 346 345 343 343 342 343 344 344 344 345 345 345 344 342 342 342 342 339 343 343
342 343 345 347 347 348 348 348 347 347 346 345 343 342 343 343 343 346 346 346 346 346 347 346 345 345 343 341 341 340 344 347 346 344 343 342 341 340 339 340 340 341 341 341 341 341 340 340 339 340 341 342 342 342 343 344 344 344 344 344 344 344 345 345 344 345 344 342 342 340 338 336 339 343 345 345 345 344 341 341 342 340 342 341 342
343 343 344 345 345 347 348 347 346 346 346 345 346 344 343 343 343 345 346 346 347 347 347 346 345 344 344 343 343 341 341 340 342 340 341 343 342 339 338 339 339 338 339 340 341 340 340 339 339 338 339 339 341 340 340 342 343 343 344 344 345 345 345 346 344 343 343 342 341 339 336 336 337 342 344 344 344 341 340 340 340 341 341 341 340
342 343 344 343 345 346 348 347 348 347 345 344 344 343 343 343 343 344 346 346 346 346 346 346 345 345 344 343 341 341 341 341 341 340 340 340 341 341 341 340 340 340 340 341 342 341 340 340 339 340 340 339 339 339 339 341 343 343 343 343 344 344 345 347 344 342 341 340 339 336 336 336 336 336 340 342 344 340 340 341 339 341 340 339 340
342 342 343 343 345 345 346 348 347 346 345 344 344 344 343 343 343 344 347 346 345 346 346 345 345 345 343 342 342 341 340 340 340 340 341 341 342 342 342 341 341 340 341 341 341 341 341 341 340 341 340 339 340 339 339 342 342 342 343 343 343 344 344 343 342 341 340 337 335 335 335 335 335 335 340 339 343 340 339 340 341 340 339 340 340
342 342 342 343 345 344 346 348 347 346 346 345 344 344 344 343 343 343 346 346 346 345 346 346 346 345 344 343 341 341 340 339 338 344 345 344 343 342 342 341 340 339 338 338 339 339 339 339 339 339 340 340 340 341 340 341 342 342 342 343 343 343 345 343 341 340 339 335 334 334 334 334 334 335 341 340 339 342 343 342 340 340 339 339 336
341 342 342 344 344 344 346 347 347 346 346 345 345 344 343 343 343 344 347 346 346 346 346 346 345 345 343 342 342 341 340 339 339 342 344 345 344 344 343 343 342 341 341 340 341 341 340 340 339 340 341 340 340 341 341 341 342 342 341 342 343 344 345 340 339 337 335 333 333 333 334 335 335 335 340 341 341 340 339 337 338 339 337 336 335
341 342 343 343 344 342 345 347 347 346 345 345 345 344 344 343 343 343 347 346 346 345 345 345 345 344 343 342 341 341 339 338 337 341 342 344 344 344 343 343 343 342 343 343 343 343 342 341 340 340 340 340 340 340 340 341 341 340 341 341 342 344 341 339 337 335 333 333 333 334 335 336 333 334 338 340 340 338 336 335 335 335 334 335 334
341 342 342 344 344 343 347 348 347 346 345 345 345 344 344 343 343 343 345 346 346 345 345 345 345 344 343 342 341 339 339 338 338 338 343 343 343 343 343 342 343 342 342 342 342 342 341 341 340 340 340 339 339 339 340 340 340 340 340 341 341 342 340 338 335 332 332 332 333 333 334 336 332 333 339 339 338 337 335 335 335 334 333 334 334
340 342 343 344 345 343 346 347 347 346 346 345 345 345 344 343 342 342 344 346 345 345 345 344 344 344 343 342 340 339 338 338 338 337 342 343 343 343 343 342 341 341 341 341 340 341 341 340 340 340 339 338 338 339 339 339 340 340 340 340 341 340 337 336 332 332 332 332 332 332 332 332 333 336 339 339 338 337 335 335 335 334 334 333 333
341 343 344 344 344 341 345 346 346 346 345 344 344 344 344 343 343 342 342 344 344 344 344 344 343 343 342 341 340 339 338 337 337 337 337 338 338 338 339 339 339 339 339 339 340 340 341 341 340 340 339 337 338 338 339 339 339 339 338 338 338 339 336 334 331 331 331 331 331 331 330 330 331 336 337 337 337 336 335 335 334 333 332 332 331
341 340 341 343 344 345 342 344 345 346 346 345 344 344 344 343 343 343 342 342 343 343 343 343 343 342 341 340 339 339 338 337 336 336 336 336 338 338 339 339 340 339 339 339 340 339 339 339 339 339 338 337 337 337 338 338 338 338 337 338 336 335 332 332 332 329 329 330 330 330 329 330 330 335 335 336 335 335 333 332 332 331 331 330 331
341 340 341 343 344 343 343 340 343 344 345 346 345 345 344 344 343 343 342 341 341 342 342 343 342 341 340 339 338 338 338 337 336 335 336 337 339 339 340 339 339 339 338 338 338 338 338 339 338 338 337 337 337 337 337 337 337 336 336 335 335 332 330 330 330 328 329 329 328 329 328 329 333 333 334 334 333 332 332 331 331 330 329 328 328
342 342 342 342 343 343 342 343 339 341 342 343 344 344 344 343 343 342 342 342 341 341 342 341 341 340 340 339 338 338 337 337 336 338 339 340 340 339 339 338 338 338 338 338 338 338 338 337 337 337 337 337 337 336 336 336 335 334 334 334 332 330 328 327 326 325 325 325 326 325 324 328 332 332 332 332 331 330 329 329 328 328 328 328 327
341 341 342 341 342 342 342 343 338 335 337 339 340 342 343 343 343 342 342 341 341 341 341 341 341 343 342 341 341 341 340 340 339 339 339 340 342 341 339 339 339 339 338 338 337 337 337 337 336 337 337 336 336 335 335 335 334 333 334 332 330 329 327 326 325 324 324 325 325 324 324 326 330 330 330 330 329 328 328 327 327 327 326 326 326
340 341 340 342 341 339 341 341 340 341 340 336 335 338 340 342 342 342 342 342 341 342 342 341 341 340 339 337 337 339 340 340 339 338 338 337 339 339 339 338 337 337 337 336 336 336 336 336 336 336 336 336 336 334 334 333 332 334 331 330 329 327 325 323 322 322 324 325 323 324 324 331 329 328 328 328 328 327 327 326 325 325 325 324 324
336 337 339 340 340 340 340 342 341 341 341 340 339 337 335 337 338 339 340 340 339 338 337 336 335 335 334 333 333 333 332 333 333 334 334 334 335 332 334 337 336 336 336 336 336 336 336 336 336 336 336 335 334 333 332 332 331 331 330 329 327 323 323 323 322 321 321 321 322 322 324 330 328 328 328 328 327 327 326 325 324 324 323 324 323
335 335 336 337 340 340 340 341 340 340 341 340 340 338 332 333 336 337 336 336 335 334 332 331 328 327 328 329 329 331 329 329 329 329 329 330 330 330 332 337 336 336 336 335 335 335 335 335 335 335 335 334 332 331 331 331 331 331 330 328 325 321 324 323 321 321 320 321 322 322 329 331 328 327 327 326 326 326 325 324 324 323 324 322 321
335 334 334 336 337 339 340 340 340 340 341 341 341 340 334 330 330 329 330 331 331 330 327 324 322 322 324 324 326 330 330 330 330 329 325 325 323 326 330 335 336 336 335 335 335 334 334 335 335 334 332 330 327 327 326 328 329 330 329 325 320 324 323 323 321 321 321 321 321 323 330 331 328 328 327 326 326 325 324 324 323 322 322 322 321
331 332 334 335 335 337 340 340 340 340 341 341 342 341 336 335 335 332 331 328 326 325 328 331 332 328 325 326 329 328 328 329 330 332 328 328 325 324 327 331 334 334 334 334 334 334 334 334 333 332 331 329 326 324 321 323 324 326 323 320 323 322 324 323 321 321 320 320 322 324 330 326 327 327 326 325 325 324 323 323 322 322 322 321 320
331 331 333 334 335 335 340 339 339 339 340 341 341 340 338 337 337 336 334 330 331 332 332 332 331 330 328 329 328 327 327 328 329 330 326 321 324 323 326 329 330 330 331 332 332 331 331 331 331 330 330 329 323 323 322 322 321 321 319 323 323 324 324 323 322 321 320 320 320 325 329 327 326 327 327 325 324 323 323 323 322 321 321 320 320
331 332 333 335 336 335 336 338 338 339 340 339 340 339 337 338 336 335 334 333 333 333 332 331 331 331 330 330 327 329 328 326 326 327 327 325 322 321 322 323 325 326 325 326 328 329 329 328 327 327 327 323 324 325 325 322 321 320 322 324 323 323 323 322 323 322 321 321 320 325 328 325 326 325 326 325 324 323 323 322 322 321 320 320 319
331 332 332 334 335 336 336 336 338 338 339 339 339 338 338 337 337 335 334 332 332 332 332 331 331 331 331 330 329 328 329 328 327 327 327 327 326 325 325 326 326 323 323 324 324 322 322 322 320 320 321 324 325 324 327 325 323 323 323 322 323 322 323 323 323 321 322 321 320 323 326 327 323 324 324 324 324 323 323 322 322 321 320 319 319
329 330 330 333 335 336 337 336 338 338 337 336 337 337 338 337 336 336 334 333 332 331 331 331 331 332 330 329 328 327 327 326 326 326 325 326 326 325 326 327 327 326 324 324 323 321 320 322 320 322 322 324 322 322 322 324 325 322 322 321 321 320 321 321 322 322 321 319 318 322 325 327 324 324 324 324 322 322 321 321 321 320 320 319 318
328 328 330 331 333 335 336 336 337 338 338 337 336 335 336 337 337 336 334 332 332 331 330 331 330 330 329 328 327 326 325 324 325 324 325 324 324 323 323 323 325 324 324 323 321 322 321 322 322 323 322 320 321 321 321 322 321 322 322 322 322 322 321 321 320 321 320 319 317 320 323 326 329 324 323 323 323 323 322 322 321 320 320 319 318
329 329 330 330 330 332 335 336 336 337 338 337 336 335 335 336 336 334 335 331 331 330 329 329 330 330 329 327 326 326 325 324 324 325 324 325 323 324 324 322 322 322 324 320 320 319 320 319 319 320 320 320 321 321 320 322 320 320 321 321 320 321 321 320 320 319 320 319 317 318 321 324 326 324 324 323 323 322 322 321 321 321 320 320 319
329 330 330 330 331 332 333 335 335 336 337 337 335 335 336 336 335 334 333 331 332 330 330 331 330 329 329 328 326 325 326 325 324 324 323 323 324 323 322 322 322 321 322 319 321 319 318 319 319 319 319 318 319 319 320 320 319 319 320 320 320 320 319 320 319 319 320 318 318 317 319 321 325 326 324 323 322 322 322 322 321 321 320 320 319
331 331 330 330 331 333 332 333 335 336 336 336 335 334 335 335 335 334 334 332 331 332 330 330 330 329 327 328 327 326 325 324 325 323 323 322 322 322 321 320 321 320 320 319 319 319 318 317 318 318 318 317 317 320 319 318 318 318 318 318 319 319 318 319 319 318 318 318 318 316 317 319 323 327 324 323 323 323 323 322 322 321 321 321 320
331 330 331 331 331 332 332 332 333 334 335 335 334 334 335 334 335 336 334 333 333 332 330 330 330 330 328 328 327 327 326 325 325 324 323 321 321 321 319 319 319 319 320 320 320 319 319 318 318 317 316 316 316 317 318 316 317 317 317 318 318 318 317 317 317 318 318 317 317 316 316 317 320 323 326 327 325 323 323 322 322 322 321 321 321
330 330 331 332 332 332 332 332 334 334 334 335 334 334 334 334 335 336 334 334 334 332 331 330 327 327 328 330 329 327 326 325 325 325 323 322 321 320 319 319 318 318 319 318 318 318 317 317 317 318 317 317 317 316 317 316 315 317 316 316 316 317 317 318 319 317 316 316 316 317 316 316 316 319 321 323 325 324 323 323 322 321 322 321 321
330 332 332 332 332 332 333 333 333 333 334 335 335 335 334 335 335 335 334 335 334 333 332 329 328 329 330 331 329 328 327 325 324 325 323 322 320 320 319 318 319 319 317 318 317 316 317 315 316 316 315 315 315 315 316 315 314 315 316 317 318 316 316 316 316 316 317 317 317 315 316 316 315 315 316 318 322 326 324 323 322 322 322 322 321
329 330 331 332 333 334 334 334 333 333 333 334 335 335 334 335 335 336 335 335 333 332 332 331 330 329 329 329 330 329 326 326 324 324 323 321 321 320 318 318 317 317 316 317 316 315 315 314 314 315 315 313 313 313 313 313 314 313 314 314 317 317 316 315 314 316 316 317 317 314 314 315 314 315 314 315 318 320 326 324 323 323 322 322 322
327 328 330 331 332 333 334 334 331 332 333 334 332 334 334 334 335 335 335 335 333 333 332 333 331 330 329 328 328 328 327 326 324 324 325 323 320 319 318 318 318 317 316 316 316 314 315 316 315 315 315 314 313 313 314 314 313 314 315 313 313 313 314 316 314 314 314 313 315 314 316 313 313 314 315 314 312 316 320 325 326 325 323 322 322
328 328 329 331 332 332 332 332 331 332 333 334 333 332 334 333 334 331 334 336 334 334 332 332 332 331 329 328 328 328 328 326 324 325 325 324 320 320 318 318 317 317 316 315 316 315 315 315 315 315 313 312 313 313 314 314 313 314 313 314 312 312 315 312 312 312 314 313 312 313 315 314 312 312 313 314 313 313 316 319 324 324 324 322 323
328 328 329 330 331 331 331 331 331 332 333 334 334 332 332 332 333 332 333 335 334 333 332 331 332 332 329 328 328 328 328 328 327 325 323 322 321 320 318 318 317 316 315 314 314 315 314 315 314 314 313 311 312 311 312 312 312 312 311 311 310 310 312 311 311 312 312 311 311 312 311 312 312 310 310 312 313 313 314 316 319 322 322 324 322
328 328 330 331 331 331 331 331 331 332 332 334 334 334 333 331 330 332 329 334 334 333 332 332 331 331 330 329 328 328 328 328 328 327 325 324 321 319 318 319 317 315 314 314 314 314 313 314 312 312 314 313 311 311 311 310 311 312 309 310 309 309 307 308 310 308 310 310 310 310 312 310 311 311 310 311 312 313 314 314 316 317 315 317 323
329 329 330 330 330 330 330 330 330 331 331 332 333 333 332 331 330 329 330 332 334 333 332 331 331 330 329 329 329 328 327 328 327 326 324 323 320 319 318 317 316 315 315 314 313 313 312 312 312 311 312 313 311 310 311 312 312 311 309 309 308 308 307 308 306 306 305 306 309 311 311 311 310 308 309 310 310 312 312 313 314 314 314 314 319
329 330 329 330 330 330 331 331 330 331 331 330 330 330 330 328 328 326 326 328 332 331 332 332 331 330 329 329 329 329 328 326 326 325 323 322 320 319 318 316 315 315 314 313 312 311 311 311 310 310 309 310 311 311 311 309 308 308 306 307 307 307 307 304 303 305 303 305 308 308 309 309 308 307 307 308 309 309 310 311 310 313 313 313 314
327 328 328 329 330 330 330 329 331 331 330 329 329 328 327 326 326 326 326 326 328 331 332 332 331 331 330 330 330 330 329 328 326 325 323 321 321 319 318 316 315 315 314 313 313 312 312 312 311 311 311 311 311 311 310 309 308 304 304 305 307 306 305 304 304 304 303 304 303 304 306 306 306 306 306 306 306 307 308 308 310 311 311 312 312
323 326 327 328 329 330 330 330 330 331 331 330 329 328 327 327 326 325 325 324 327 327 328 330 331 331 330 330 330 330 328 327 325 326 324 323 321 320 318 317 315 314 314 313 313 311 312 312 312 311 313 312 311 311 310 309 305 305 304 304 301 303 305 304 303 303 303 303 303 303 304 304 305 306 306 305 305 305 306 306 307 309 311 311 311
322 323 325 326 327 328 329 330 330 330 330 330 329 328 328 327 327 325 325 322 325 328 329 329 330 330 330 330 329 329 329 328 327 327 326 324 322 321 320 319 317 314 312 312 312 312 312 311 312 312 310 311 311 312 311 310 306 306 307 303 301 301 301 299 300 301 302 302 301 302 303 303 304 305 305 304 304 305 305 305 305 306 308 310 311
318 319 321 323 326 326 327 328 329 329 329 329 327 329 329 327 327 327 327 326 325 325 327 328 331 331 329 330 331 331 330 329 329 326 325 323 322 321 321 320 317 314 312 311 311 311 311 312 312 311 311 308 308 308 309 309 309 307 302 303 301 300 301 304 303 303 301 302 301 302 302 302 303 303 302 302 304 304 304 304 304 305 305 307 309
316 318 319 321 324 324 326 327 328 329 329 327 326 327 327 327 327 326 327 326 324 326 323 322 326 329 329 329 330 330 330 329 328 326 324 323 322 322 322 321 317 313 312 311 311 312 311 311 310 309 309 310 308 307 308 309 309 310 307 301 299 298 300 303 304 305 303 301 301 303 302 301 302 302 302 302 303 303 304 303 303 304 304 305 306
310 314 319 320 320 322 324 325 326 327 328 327 327 327 326 326 325 324 322 321 321 323 323 323 324 324 327 329 329 329 328 327 327 327 326 324 324 324 324 321 317 314 313 313 313 312 311 310 310 310 309 310 311 309 307 305 306 307 309 310 310 306 302 302 304 302 304 304 303 302 302 302 302 302 302 302 302 303 303 303 303 304 304 304 304
307 308 312 317 319 320 322 324 325 325 326 327 327 325 326 326 326 325 323 321 321 321 321 325 326 325 326 328 328 328 328 327 327 327 327 325 325 324 322 320 318 317 316 315 314 313 313 312 310 310 311 310 309 308 308 307 303 304 305 306 307 306 305 303 303 302 301 302 303 302 302 301 302 302 302 303 303 304 304 303 303 303 303 303 303
306 308 309 313 317 319 321 322 323 323 325 326 326 326 326 325 324 323 322 321 321 320 322 323 324 324 325 324 328 328 328 327 328 328 327 326 323 322 321 320 319 319 315 315 314 313 313 312 311 311 310 310 309 309 309 309 305 305 303 303 304 305 306 304 303 302 301 298 301 304 303 300 301 302 302 302 303 303 303 303 303 303 303 303 303
306 306 308 310 313 316 318 320 321 321 323 324 325 325 324 325 324 323 320 321 322 321 321 322 321 319 319 319 321 324 326 326 327 326 325 324 321 322 323 321 319 318 315 315 314 314 313 313 312 310 309 308 308 309 309 309 309 308 304 301 302 303 303 304 302 299 298 297 299 301 303 302 300 300 301 302 302 302 303 304 304 304 304 303 303
304 305 305 307 309 311 315 318 319 320 322 323 323 324 323 322 322 321 320 319 320 320 319 320 320 319 319 318 319 321 324 322 322 324 325 325 325 324 323 322 321 320 316 317 316 314 314 313 313 311 309 308 308 308 308 309 309 310 309 307 301 300 300 300 300 300 299 300 298 300 303 302 301 303 302 301 301 301 302 302 302 302 302 303 303
303 303 304 304 305 308 311 315 318 319 320 322 322 323 322 321 321 320 320 319 317 317 316 317 318 319 321 322 322 323 324 325 326 327 327 327 326 323 323 323 323 321 318 317 317 316 315 314 313 310 309 310 309 309 308 308 309 308 308 308 307 304 302 301 301 300 300 297 296 297 299 301 300 301 304 304 302 302 302 302 302 302 302 302 302
Wind_Speed
8 9 7 9 11 11 11 12 12 11 11 11 11 11 11 10 9 10 13 13 12 12 12 14 14 15 16 15 14 14 16 17 18 18 17 16 16 18 17 18 18 18 19 19 19 18 17 15 16 17 18 19 19 20 20 20 20 20 20 19 19 19 19 19 20 19 19 20 21 20 19 18 18 19 19 19 19 20 17 18 15 12 10 13 20
10 8 6 7 11 11 12 12 12 12 11 11 11 11 11 10 8 11 13 13 12 12 12 14 14 14 14 14 14 15 17 17 19 17 17 16 16 17 18 19 19 18 18 18 18 18 18 17 16 16 17 18 18 19 19 19 18 18 17 17 16 15 14 16 17 18 18 19 20 20 20 20 19 19 20 20 20 20 16 17 17 10 9 19 20
10 9 7 8 10 11 11 11 12 12 12 12 11 10 10 9 10 10 12 12 12 12 12 13 14 15 14 14 13 15 16 17 17 17 17 17 17 16 16 17 18 18 19 18 18 19 18 18 17 16 17 18 18 18 18 18 17 17 16 16 14 14 13 12 12 14 16 18 19 18 18 19 20 20 21 21 21 19 17 19 18 16 13 21 19
11 8 7 7 10 10 12 12 12 12 11 11 11 10 10 10 9 11 11 12 12 12 12 13 14 15 14 14 14 13 15 16 16 16 17 17 16 16 17 18 17 17 17 18 18 18 18 18 18 17 17 17 16 17 17 17 17 16 15 15 14 13 12 10 8 9 12 18 17 14 10 9 12 20 20 20 21 21 18 20 20 20 21 20 21
11 9 8 7 7 10 11 12 12 12 11 12 11 11 10 10 10 12 12 12 12 12 12 14 14 14 14 14 14 14 13 14 14 14 16 16 15 15 15 16 17 17 17 17 18 18 18 18 18 18 17 17 17 17 16 16 16 15 15 15 14 13 12 11 16 17 17 18 16 11 8 8 9 17 19 21 21 19 19 20 20 21 21 21 21
10 9 8 8 7 8 11 12 12 12 12 11 11 11 11 10 9 11 13 12 12 11 12 14 15 14 14 14 14 13 13 14 15 14 14 15 15 15 16 16 17 16 17 17 17 17 18 18 18 17 17 17 16 16 15 15 15 15 15 15 15 14 13 10 12 17 17 15 14 8 8 8 9 9 18 20 21 18 19 20 20 20 21 22 20
11 8 9 8 7 7 11 12 13 12 12 11 11 11 11 10 9 11 14 12 11 11 11 13 14 13 13 13 13 14 14 13 13 14 14 14 15 15 15 16 16 16 16 17 17 17 17 18 17 17 17 17 16 16 14 14 14 15 15 15 14 13 12 15 17 17 15 9 7 8 8 9 8 6 18 16 20 19 18 21 21 21 20 19 20
8 7 8 8 7 9 11 12 12 12 12 11 11 10 11 10 9 9 14 12 11 11 11 12 12 14 14 14 13 13 14 13 13 15 15 15 15 15 15 15 15 15 15 16 16 16 16 16 16 16 16 16 16 15 15 14 14 14 15 16 15 13 10 11 16 15 13 9 8 8 8 7 8 7 16 19 18 20 22 21 20 20 19 19 15
8 9 9 8 7 12 12 11 12 12 12 11 11 10 10 10 10 10 14 12 11 11 12 11 12 13 14 13 13 13 12 12 12 14 14 15 14 15 15 15 15 16 15 15 15 15 16 16 16 16 16 16 16 16 14 13 14 16 16 15 14 12 10 18 16 14 10 8 8 7 7 7 8 7 16 21 22 21 20 17 16 20 20 17 17
7 8 10 7 7 12 12 11 12 12 12 11 10 10 10 10 10 11 14 13 12 12 12 11 12 13 13 13 13 13 13 11 11 13 13 13 14 15 15 14 14 15 16 15 15 16 16 16 16 16 16 15 15 14 13 13 15 16 16 15 15 14 17 16 13 11 9 9 10 9 9 10 7 7 15 19 20 21 19 16 13 12 13 18 18
9 10 8 8 8 12 12 11 11 11 11 11 10 10 10 9 9 10 12 12 12 12 12 11 11 13 13 13 13 12 12 12 11 11 13 13 13 14 15 14 14 15 15 15 15 16 16 16 16 15 15 15 15 13 13 13 14 16 16 17 17 13 15 15 14 9 9 9 8 8 11 14 8 7 16 18 19 19 14 14 14 13 15 16 16
9 10 9 7 9 11 12 11 11 11 11 11 10 10 9 9 9 9 12 12 13 13 11 11 12 13 13 13 12 12 11 11 10 10 12 13 13 14 13 14 14 14 14 14 14 14 15 15 15 15 15 14 14 13 12 13 14 14 15 15 15 16 16 15 9 8 8 9 9 9 8 7 6 10 17 16 16 16 16 16 15 15 15 16 14
9 10 9 7 6 10 12 11 10 11 11 11 10 10 10 9 9 9 10 12 11 11 12 11 12 13 13 12 11 11 11 10 10 10 10 10 10 11 12 12 13 13 14 14 14 14 14 14 15 15 14 14 13 12 11 12 13 14 14 14 12 10 12 12 7 7 6 6 6 6 5 3 4 13 14 16 15 14 15 15 14 14 14 12 12
12 10 9 7 6 10 11 11 10 10 10 10 10 10 9 10 9 10 10 11 11 11 11 11 12 12 12 11 10 10 10 10 10 10 9 10 11 11 12 12 12 12 12 12 13 13 13 13 13 14 13 12 12 11 10 11 13 13 13 11 8 7 8 9 8 6 7 8 7 7 7 5 6 13 14 13 14 14 12 12 12 12 13 14 14
12 10 9 7 7 6 10 10 9 9 9 9 10 9 10 10 10 10 10 9 10 11 11 11 11 10 10 9 10 9 9 10 10 9 9 9 11 11 11 11 12 12 12 12 12 12 12 12 12 12 12 12 11 10 9 11 12 12 11 10 11 12 9 6 6 5 6 6 5 5 5 4 11 12 13 12 12 12 13 12 13 13 12 13 13
11 10 10 8 7 7 6 8 9 9 9 9 8 8 9 9 10 10 10 10 9 10 10 10 10 9 9 8 8 9 9 10 9 10 13 13 11 10 11 12 12 12 12 11 11 11 11 11 11 11 11 11 11 9 9 10 10 10 9 10 11 11 10 7 6 5 5 6 5 5 4 3 12 12 13 13 12 12 11 12 13 12 12 12 12
10 10 11 9 8 7 7 6 6 9 9 9 8 8 8 8 8 9 9 10 9 9 8 8 9 9 10 11 11 11 11 10 10 12 12 11 13 14 13 13 13 12 12 11 11 11 10 10 10 10 11 11 10 9 8 9 9 8 8 9 10 12 12 8 5 5 7 6 5 5 5 4 10 11 11 11 11 11 11 10 11 11 11 11 11
7 7 9 10 8 7 7 7 7 6 6 7 9 9 8 8 8 8 9 8 9 8 8 9 9 9 9 10 10 9 9 9 9 10 10 10 10 11 10 12 11 11 11 10 10 10 10 10 10 10 10 10 10 8 8 8 8 8 8 8 9 10 11 10 6 6 7 7 6 4 5 6 10 10 10 10 10 11 11 11 11 11 11 10 10
5 5 7 9 9 8 8 7 7 6 7 5 4 7 9 9 8 8 9 9 8 9 9 9 9 9 10 10 10 10 10 10 9 10 10 10 10 9 9 9 11 11 11 10 10 10 10 10 10 11 10 10 9 8 8 8 7 7 7 8 10 10 9 5 6 7 7 6 5 4 4 7 8 9 9 10 10 10 10 10 10 10 9 10 8
5 4 6 5 7 7 8 7 6 6 6 6 6 5 8 9 9 9 9 10 9 9 9 9 9 9 9 10 10 8 7 7 10 8 11 10 10 8 10 9 10 11 10 9 9 9 9 9 10 10 10 10 9 9 8 7 7 7 7 8 9 9 5 6 6 6 6 6 4 3 2 6 8 8 8 9 9 9 9 8 8 9 10 8 7
4 4 5 5 6 8 8 7 6 7 7 6 7 6 7 9 7 9 10 10 9 9 9 9 8 7 7 7 7 5 5 5 6 5 9 7 9 10 10 10 9 9 9 9 8 8 8 9 10 10 9 9 8 8 7 7 6 6 7 8 9 3 3 4 5 5 6 6 4 3 5 4 6 8 8 8 8 8 8 8 8 8 8 9 9
5 5 5 6 4 7 8 6 5 8 6 5 5 6 6 7 6 5 6 7 8 8 6 4 5 3 5 5 4 5 5 3 5 6 6 6 7 10 10 10 11 10 10 10 10 9 9 9 8 6 8 7 7 5 4 5 5 6 7 8 5 2 3 6 5 6 6 4 4 4 5 3 6 6 7 7 7 7 7 8 7 7 8 8 7
5 5 5 7 5 5 8 8 6 7 8 5 5 6 7 5 6 5 5 6 6 5 4 5 4 4 3 4 4 6 3 4 4 6 7 9 8 9 10 11 11 10 9 9 9 9 9 7 5 4 5 6 2 4 3 1 1 6 6 5 2 5 3 3 4 6 6 5 4 4 3 5 4 5 6 7 6 7 7 7 7 7 7 7 8
7 6 6 5 7 5 7 8 6 8 8 6 6 6 6 6 6 5 6 6 5 4 4 5 4 5 4 5 3 6 6 5 9 12 9 6 6 9 10 10 11 10 10 6 6 6 6 5 1 2 3 3 3 3 4 3 2 3 4 4 3 3 4 3 4 5 5 5 4 5 6 1 5 4 5 5 6 7 7 7 7 7 7 7 6
6 6 6 6 7 5 5 6 6 6 8 8 7 7 7 6 6 6 6 6 6 5 4 5 4 7 6 4 3 5 6 6 5 6 6 6 6 5 5 5 5 4 7 4 5 3 3 3 1 2 3 4 5 4 5 5 4 3 5 1 4 2 3 3 3 4 5 5 4 4 4 3 3 4 3 5 6 7 7 7 7 7 6 5 5
7 7 7 7 8 8 7 5 7 5 6 7 7 8 7 6 5 6 6 6 6 5 5 5 4 6 4 2 6 3 5 6 4 4 4 7 6 6 6 6 5 5 4 3 5 4 3 4 3 4 4 6 2 1 3 4 5 5 2 1 2 2 1 2 2 3 6 5 3 6 2 2 4 3 4 4 5 6 6 7 7 7 7 6 3
7 7 7 6 8 8 8 6 7 7 6 5 6 7 7 7 6 6 6 6 6 5 6 5 4 4 4 3 5 5 4 6 5 5 4 6 6 7 7 6 6 5 5 4 4 5 5 5 5 5 6 1 2 2 3 3 1 1 0 1 0 0 0 1 2 1 5 5 5 8 2 4 8 2 3 4 5 6 6 6 7 6 7 6 5
6 7 7 6 8 8 8 8 7 7 7 5 6 6 5 5 7 7 6 6 7 6 6 6 5 6 4 3 3 6 4 7 6 5 4 5 5 4 5 4 6 6 5 2 4 3 1 2 3 2 2 2 0 1 1 0 2 2 1 1 1 1 0 0 0 1 4 5 5 5 4 2 6 3 5 4 5 5 5 6 6 7 7 7 6
8 8 7 7 8 8 8 9 8 8 7 6 6 6 6 5 6 6 6 6 6 6 5 5 6 6 5 3 6 5 6 6 6 5 3 4 4 4 4 4 5 5 6 3 5 3 2 4 1 1 1 1 3 2 2 2 2 2 1 0 0 1 1 0 0 0 2 5 5 5 6 3 3 3 6 6 5 6 6 7 7 7 7 7 7
10 9 8 7 8 9 8 9 9 9 8 7 6 6 7 6 6 6 6 6 5 6 4 5 5 6 4 3 4 5 5 6 6 5 5 4 4 4 3 3 5 3 4 3 4 4 5 3 2 3 3 3 2 5 4 2 2 3 3 3 2 2 2 0 0 0 1 3 5 6 9 7 5 3 5 7 8 8 7 7 8 8 8 9 8
9 9 8 7 7 9 7 8 8 8 7 7 6 6 6 6 6 7 5 6 5 6 4 3 5 5 5 4 3 4 3 4 6 6 5 5 4 4 3 3 3 3 4 4 5 5 4 5 4 3 3 2 3 3 4 2 4 4 1 2 4 3 3 3 2 1 1 2 2 5 6 8 5 5 5 7 9 9 8 9 9 9 8 9 9
8 9 8 7 8 9 8 7 8 7 8 7 7 6 6 7 6 7 6 7 6 5 6 5 4 5 4 5 4 3 4 3 5 6 6 5 4 5 4 4 4 4 4 4 4 5 2 2 2 2 1 3 4 3 4 3 3 4 3 3 3 3 4 5 5 4 4 3 2 6 6 6 7 7 7 7 10 11 9 10 10 10 10 10 10
5 7 8 9 9 11 10 8 7 6 7 8 7 6 6 6 6 7 6 7 6 6 6 6 5 5 4 3 4 4 5 3 2 5 5 6 5 4 4 4 4 4 4 4 4 3 1 1 2 1 1 1 1 1 2 3 3 3 4 4 4 4 3 3 4 3 4 4 5 5 6 6 6 9 11 8 8 10 12 12 11 11 11 11 11
7 6 7 9 8 7 8 7 8 8 7 6 7 7 5 6 6 7 6 7 6 6 6 6 6 6 6 4 3 3 3 5 2 3 4 4 4 5 4 4 4 4 4 4 4 3 3 3 3 3 3 3 3 3 2 3 4 4 3 4 5 5 4 4 3 4 4 4 5 3 4 6 6 6 6 9 9 8 9 13 13 12 12 12 12
6 5 8 8 8 7 8 8 9 8 7 6 6 8 6 6 6 6 7 7 6 6 5 6 7 6 6 6 4 3 3 3 3 3 4 4 4 4 4 5 4 4 4 5 4 3 3 4 4 4 4 5 4 4 4 5 4 6 5 3 3 3 3 4 4 4 4 3 4 4 4 3 6 6 6 7 8 11 10 10 12 13 14 14 14
9 8 7 8 9 7 8 8 10 9 8 9 5 5 7 6 6 6 6 7 6 7 6 6 6 5 6 6 6 6 4 4 3 3 4 6 5 6 6 5 4 5 5 5 5 5 5 4 4 4 4 4 5 5 4 5 4 5 4 4 3 3 5 4 4 4 4 3 3 4 5 5 4 4 6 6 6 8 12 12 10 11 14 16 16
9 8 8 8 8 8 9 8 12 11 9 9 7 4 4 6 6 7 6 8 7 6 6 6 6 6 7 6 7 7 6 5 4 3 3 4 5 6 6 5 5 6 6 5 6 5 4 4 4 5 4 4 5 4 4 4 4 4 4 4 3 3 4 4 4 4 3 3 4 4 4 4 5 6 4 6 7 6 11 15 15 14 12 10 15
9 9 9 10 10 9 9 9 9 11 9 10 9 7 5 5 6 6 6 7 7 6 6 6 5 5 7 8 8 8 9 9 8 6 4 4 4 5 5 6 6 6 6 5 6 5 4 4 4 4 5 4 4 4 4 4 3 4 3 3 3 2 3 3 4 4 4 4 5 5 6 6 6 6 6 5 4 7 7 12 17 16 15 12 11
9 10 9 9 8 8 8 9 8 10 9 10 10 8 7 5 4 4 6 6 7 6 6 6 6 5 6 7 9 8 8 8 7 7 7 5 4 5 5 5 6 6 5 5 4 5 4 4 4 4 4 4 4 3 4 5 4 4 3 2 3 4 3 4 4 5 4 4 6 6 5 6 5 4 5 6 6 5 5 4 8 9 11 16 14
9 10 9 10 10 8 7 8 8 10 8 8 9 8 7 6 6 5 5 6 7 8 7 7 6 7 6 7 8 8 8 7 7 6 6 6 5 5 5 4 5 6 5 5 5 6 6 5 4 4 4 4 4 4 3 2 2 2 2 3 3 4 4 4 4 6 4 5 6 5 6 5 6 5 5 6 5 5 6 5 4 7 8 12 16
8 10 9 9 11 11 10 11 10 9 9 9 9 9 9 8 6 7 7 6 7 8 8 7 7 7 8 8 8 7 7 8 7 6 6 6 6 5 5 4 5 6 6 7 6 5 5 6 5 5 5 4 3 3 3 0 0 2 2 4 5 5 6 5 8 8 7 6 5 6 6 6 6 7 7 5 5 6 7 6 6 5 6 7 11
7 9 10 10 10 10 11 11 10 9 10 10 9 9 9 9 9 9 7 7 7 7 7 8 8 7 8 8 8 7 7 7 8 7 7 7 7 6 6 7 6 6 6 5 5 5 5 5 4 4 4 6 4 4 4 3 3 5 3 4 4 5 7 8 8 8 7 7 7 7 8 8 9 8 6 6 6 7 8 7 6 7 7 6 7
11 12 11 10 10 10 9 9 10 10 9 10 9 9 7 7 7 6 8 5 5 7 6 6 7 8 9 9 8 8 8 7 7 8 7 7 7 7 7 7 7 7 6 6 5 5 6 6 6 6 4 3 5 3 6 8 6 4 2 2 5 4 2 2 6 8 8 8 7 9 9 8 10 8 7 6 7 9 8 7 8 9 8 9 7
9 8 9 10 10 9 9 9 10 10 9 10 9 8 8 6 5 5 5 5 5 5 7 8 8 8 8 8 8 8 8 8 7 8 7 7 7 7 6 6 7 7 7 7 5 5 5 5 6 6 5 4 4 6 5 6 6 4 2 5 1 1 8 6 5 5 8 11 9 11 8 9 9 8 5 7 9 8 7 7 10 10 9 10 8
9 10 10 11 9 12 11 11 9 11 10 9 9 8 8 7 7 5 6 5 2 6 5 6 7 8 8 8 8 7 7 8 7 8 8 7 6 6 6 5 6 6 6 6 6 8 7 6 6 6 6 7 6 4 4 5 7 6 5 1 1 1 6 4 4 6 5 4 7 9 8 9 8 8 8 10 8 7 8 9 9 9 11 10 9
8 8 10 11 9 9 10 9 8 8 9 10 10 8 9 9 9 8 8 8 7 7 9 9 7 7 8 7 8 8 7 5 5 6 7 6 7 7 6 6 6 6 6 7 6 5 6 7 8 8 7 7 8 6 5 2 5 7 7 7 6 7 2 1 4 6 0 6 6 6 8 7 7 8 8 8 8 9 8 9 9 11 11 10 10
8 6 5 7 8 8 9 10 10 8 8 9 10 8 8 8 10 10 8 9 8 6 4 5 7 6 6 8 8 8 8 9 8 7 6 7 7 7 7 6 6 5 6 6 6 7 7 8 6 7 8 7 5 7 8 5 1 5 5 7 8 6 3 3 9 5 10 2 4 3 5 5 7 9 9 9 9 9 9 9 11 11 11 10 11
7 6 6 5 7 8 9 9 8 8 7 8 11 10 9 9 8 8 8 8 8 7 7 6 6 6 7 7 8 8 8 8 8 8 7 7 8 7 6 6 6 6 6 7 8 7 5 4 5 5 4 5 7 8 8 6 6 5 6 9 9 9 7 7 5 7 8 11 12 5 6 5 6 9 9 9 10 10 11 10 11 11 10 11 10
6 7 7 6 5 6 6 6 7 7 7 8 10 10 9 9 9 8 8 7 7 6 6 6 5 3 3 3 5 7 8 7 8 8 8 7 8 8 7 7 7 7 7 6 6 5 6 5 5 5 6 6 6 7 7 8 8 9 4 5 5 7 6 6 5 3 6 7 13 11 12 3 5 7 6 8 8 9 10 12 11 12 11 10 10
3 4 5 5 5 5 6 7 7 6 6 7 9 10 9 8 8 9 9 7 6 6 6 7 6 4 5 4 4 5 6 5 5 6 6 6 6 7 6 6 6 6 6 6 6 6 6 6 7 8 7 7 6 6 8 7 6 6 6 4 4 3 3 5 5 5 6 9 13 12 10 11 11 8 6 7 10 10 11 11 11 10 10 10 10
2 3 3 4 4 5 5 6 7 6 7 8 7 9 8 7 8 8 8 8 6 6 5 5 7 6 7 7 6 5 5 5 6 6 6 6 6 6 5 6 6 7 6 5 6 7 7 7 7 7 7 8 7 8 9 9 7 6 6 6 7 7 8 8 7 6 8 7 6 11 11 9 10 14 9 8 9 11 11 10 11 10 10 10 11
Wind_Direction
125 122 122 122 115 113 107 99 93 87 87 86 81 80 82 80 78 68 77 89 89 87 86 84 81 78 74 72 70 68 67 71 72 68 66 67 68 68 64 64 63 62 61 60 59 59 61 67 67 64 63 62 61 62 65 66 67 69 67 67 67 72 73 73 71 67 64 65 66 67 68 69 69 71 70 71 73 74 71 68 62 62 64 70 67
128 121 127 123 121 115 110 106 101 94 88 85 82 80 81 83 79 76 80 86 91 87 90 86 82 78 76 73 71 72 70 71 72 69 68 66 63 66 64 66 64 63 64 64 63 63 64 63 63 67 67 66 64 66 64 62 61 61 62 61 62 63 66 78 82 78 75 70 66 65 67 69 70 71 72 71 72 72 73 74 73 73 75 74 72
121 124 123 126 120 114 112 106 102 100 91 87 84 83 81 82 82 76 77 90 95 96 91 91 87 84 81 77 77 72 77 75 75 73 73 69 67 70 69 66 65 64 63 64 66 66 64 65 66 68 68 67 64 64 60 57 57 57 56 55 54 53 51 53 63 80 82 73 66 59 54 61 69 72 73 73 74 74 75 76 76 73 74 74 74
123 120 122 119 118 114 109 107 104 99 95 90 90 87 82 73 62 80 81 88 94 95 95 90 87 86 81 76 73 69 78 81 80 82 78 73 67 64 64 68 71 72 70 68 68 68 68 68 68 69 67 69 69 63 60 57 53 51 50 49 49 48 50 58 63 56 68 75 69 63 60 52 59 72 76 76 74 72 71 74 73 76 77 76 75
119 123 124 123 115 113 113 110 106 101 97 93 89 88 84 77 67 81 84 91 95 96 92 94 91 88 84 82 81 79 71 77 78 70 74 74 74 74 70 68 68 68 72 70 69 68 70 70 70 72 71 70 65 64 62 57 52 50 46 42 39 39 42 53 69 62 62 64 62 59 57 57 60 68 77 78 76 73 73 76 75 71 71 73 73
125 129 134 128 119 116 114 112 108 104 101 99 95 90 84 77 77 81 80 85 93 96 97 96 95 90 85 80 80 76 72 74 77 71 70 72 71 71 69 69 70 71 69 69 70 71 71 71 71 73 73 71 71 70 71 62 53 48 44 39 36 33 34 41 64 70 63 65 65 60 52 54 58 61 75 77 78 76 77 74 74 74 71 71 74
130 139 130 123 125 120 118 116 111 109 105 104 101 93 86 80 71 82 84 84 93 93 93 98 97 93 89 86 76 70 72 71 72 68 61 74 78 72 72 72 70 67 69 75 75 72 71 70 71 72 73 75 75 75 76 62 51 47 42 37 32 27 31 60 62 68 65 63 65 63 56 53 59 58 66 72 74 73 76 77 74 72 73 71 68
131 129 127 124 120 127 120 119 117 113 110 104 102 98 90 86 84 75 80 82 93 100 100 95 95 95 91 87 81 81 78 74 73 68 66 64 66 69 72 77 80 79 73 69 70 71 72 73 71 71 72 75 76 78 78 58 50 45 38 31 26 24 18 55 72 71 73 69 65 62 61 67 72 65 68 72 72 71 67 70 73 73 72 72 70
131 129 119 115 128 126 121 121 119 116 113 109 104 100 95 86 79 83 80 81 89 97 99 97 98 97 93 87 86 84 83 77 70 70 72 75 75 74 69 64 66 78 76 76 76 74 72 73 73 72 72 73 77 77 62 52 48 43 38 32 28 29 47 78 72 65 61 63 69 76 73 66 64 78 73 72 71 69 68 65 66 71 72 71 73
130 114 111 118 130 125 122 123 120 117 115 113 108 104 98 91 83 86 83 82 88 97 99 98 101 100 95 92 88 80 75 73 69 72 71 74 76 76 76 72 73 77 79 78 78 77 75 75 75 73 73 75 77 70 56 51 49 45 42 38 35 44 56 56 67 76 72 65 63 63 70 71 64 66 77 76 74 73 73 72 77 76 73 72 73
131 117 112 120 130 126 126 121 120 121 117 114 112 105 99 92 90 89 85 89 90 95 99 101 103 98 94 90 85 82 75 72 70 74 78 76 80 81 84 82 76 76 77 75 74 75 75 72 73 74 74 75 75 69 56 51 50 47 43 40 40 38 60 61 59 59 64 66 66 66 65 65 69 68 76 80 79 76 75 81 79 78 79 78 77
124 111 111 119 131 126 121 122 123 122 120 116 112 107 102 93 92 93 96 96 96 95 96 100 101 93 92 89 85 83 82 76 72 72 87 83 81 86 83 80 80 77 76 75 74 75 77 78 76 76 75 74 76 73 57 51 46 41 36 33 34 51 53 62 67 67 70 69 67 68 68 67 73 77 78 79 80 75 72 70 69 69 74 78 77
106 102 112 125 126 125 122 124 124 124 123 120 116 113 105 100 94 92 93 90 90 94 100 99 96 92 92 90 87 85 83 79 76 74 70 88 94 83 80 78 75 75 75 75 74 76 77 78 79 79 78 77 77 71 59 51 45 40 32 27 23 27 64 63 68 70 69 70 70 65 60 56 70 79 75 73 69 70 73 75 76 78 77 71 75
109 118 125 131 127 124 122 123 125 125 126 124 121 118 113 108 105 98 94 98 100 103 99 99 96 98 97 96 95 90 85 83 79 74 73 80 78 76 75 74 74 75 75 74 73 74 77 80 81 83 83 82 80 71 56 50 45 39 32 26 16 24 66 63 66 67 70 72 72 69 62 51 53 69 73 72 74 73 72 75 78 75 70 72 75
121 128 124 124 129 126 120 122 126 126 125 126 125 123 122 118 113 108 100 93 105 110 105 100 98 96 97 97 92 91 92 86 81 73 58 69 89 82 79 80 80 78 76 75 76 76 77 79 79 81 85 85 82 72 56 53 47 39 33 22 24 29 45 85 78 83 82 78 73 76 80 75 75 74 72 78 83 81 76 69 66 67 72 78 77
122 126 125 134 134 129 124 124 124 126 125 124 127 127 123 122 118 117 112 99 93 108 106 103 104 103 101 92 86 93 95 94 84 64 49 42 72 89 85 82 79 76 75 76 75 75 76 80 82 83 85 84 78 69 62 57 53 43 31 31 34 31 39 68 63 53 61 77 71 57 47 73 84 81 81 78 77 81 85 83 77 75 77 77 80
123 134 134 138 134 148 133 138 132 127 128 129 128 125 123 123 122 119 115 103 96 85 92 110 96 88 84 77 73 71 70 76 76 66 53 47 61 71 76 80 79 78 77 75 74 75 76 80 81 81 82 79 76 68 60 56 51 40 33 42 36 42 45 51 63 62 59 57 60 50 43 49 77 80 82 88 91 85 80 81 88 92 95 91 91
129 138 136 138 143 149 143 144 142 140 134 130 126 128 127 121 117 112 108 103 97 87 79 81 83 82 81 78 73 67 68 71 75 69 59 54 62 73 75 79 80 79 76 74 74 75 78 82 83 82 81 78 70 68 61 52 45 31 39 34 40 45 56 70 75 70 66 65 62 56 41 68 81 83 83 82 86 92 93 90 91 87 75 74 78
131 151 141 145 154 147 147 145 158 154 144 141 135 130 126 121 114 113 111 107 97 95 92 84 89 88 89 87 82 79 78 80 75 68 63 59 60 63 69 77 81 79 78 76 77 77 79 82 82 80 80 77 72 66 59 46 30 29 24 13 7 3 344 41 58 61 62 59 59 62 67 79 88 89 90 91 91 92 92 93 81 72 81 92 91
140 175 145 152 149 154 142 153 167 161 156 150 142 132 128 124 118 113 112 110 107 101 99 94 94 94 99 102 98 93 91 92 84 76 70 66 64 69 67 71 79 82 80 81 78 79 80 80 81 81 77 75 70 59 49 43 25 1 355 354 357 338 26 72 81 78 80 80 73 53 32 88 91 91 91 95 97 97 96 91 89 92 100 101 96
148 189 153 168 161 145 146 154 173 159 163 147 140 138 132 119 111 114 116 115 112 108 105 104 99 104 109 123 133 121 117 120 107 91 79 76 75 76 79 76 77 78 79 78 80 77 76 77 75 79 84 84 76 62 44 31 10 354 342 344 345 355 48 61 73 82 90 88 67 47 59 78 104 102 100 101 98 89 88 95 101 99 87 83 85
159 190 174 165 169 150 150 155 182 155 151 140 144 136 146 139 129 130 121 118 118 122 124 127 123 116 143 158 179 151 149 153 122 122 102 88 80 86 86 85 79 72 73 71 68 70 73 72 73 92 114 128 116 89 66 26 4 334 332 331 333 348 28 65 72 73 70 72 68 18 342 82 78 93 102 101 102 105 105 97 94 85 92 95 86
172 185 198 161 175 164 154 167 187 147 140 142 142 139 156 151 148 147 134 134 143 153 154 148 152 146 192 198 212 159 139 103 115 104 109 98 99 98 99 101 96 92 87 87 79 72 69 70 76 116 160 171 155 131 127 123 331 311 318 318 330 42 30 64 79 84 91 92 71 40 13 86 98 106 116 112 105 104 105 107 104 100 99 98 93
174 180 185 175 168 177 169 164 174 147 145 146 149 149 170 163 157 154 149 146 161 189 159 172 159 157 207 220 202 113 100 107 112 119 114 111 104 104 111 109 114 116 118 106 103 104 100 83 34 309 279 261 253 183 150 164 189 268 292 305 35 30 20 27 68 102 105 97 85 32 349 62 81 103 106 114 118 123 124 120 116 107 102 103 118
171 175 175 184 172 178 169 167 165 155 155 153 160 160 178 160 160 149 158 151 164 195 168 180 166 162 205 223 130 114 123 131 134 148 150 137 134 139 139 141 145 152 146 150 145 168 159 144 171 253 259 239 236 186 151 166 188 220 248 311 52 27 12 20 47 104 103 105 107 54 338 89 132 133 129 121 124 122 127 127 123 122 116 114 113
168 181 182 178 177 182 171 173 161 161 163 157 162 163 169 157 160 155 162 155 166 185 153 184 159 159 206 180 126 124 130 142 154 173 189 152 155 170 176 173 167 173 192 189 161 163 176 166 170 208 235 249 243 127 164 180 182 213 252 67 72 48 15 5 40 72 113 125 112 106 105 165 212 143 146 150 157 156 143 143 143 134 128 122 142
173 183 178 180 176 186 173 171 166 166 175 160 165 153 165 164 157 165 162 160 162 166 161 177 159 167 199 191 131 150 161 151 160 193 206 152 170 183 190 178 166 163 191 201 164 179 175 177 185 205 218 158 41 24 30 8 1 173 105 68 78 148 67 26 29 46 121 125 134 119 68 293 315 241 187 175 172 168 164 156 154 149 139 141 150
162 180 183 178 177 188 174 170 170 167 177 174 166 149 166 161 159 160 168 156 154 167 172 168 163 167 203 190 163 158 190 151 175 186 197 157 181 181 192 153 157 154 203 183 137 114 311 249 194 189 75 72 108 27 342 348 322 4 43 55 1 353 193 123 60 7 113 143 142 140 136 322 315 224 203 199 190 184 184 182 169 165 162 160 158
171 183 183 178 177 187 181 172 169 171 173 178 176 155 166 178 140 152 168 148 151 163 170 166 159 162 202 195 182 174 184 161 165 172 180 178 181 171 165 151 157 176 167 137 128 139 222 257 207 111 142 196 175 164 233 215 242 278 226 112 284 301 318 296 168 346 99 150 153 163 167 204 277 248 221 209 203 208 202 200 191 186 180 179 164
172 178 178 182 169 183 190 177 169 176 174 180 184 168 167 174 155 154 164 140 153 159 169 167 157 158 197 213 188 200 186 164 162 168 169 192 161 164 150 164 169 149 127 141 150 162 206 228 175 189 192 205 173 192 188 212 220 236 203 188 204 234 245 166 234 210 304 154 169 180 193 192 197 267 224 214 215 212 218 214 211 201 193 198 178
164 174 177 175 169 175 189 179 176 173 173 175 180 180 164 171 161 157 153 157 165 159 166 173 159 161 171 208 204 206 231 177 162 166 171 166 153 159 178 176 156 158 149 177 169 183 201 189 186 185 182 187 209 202 160 211 212 233 194 154 193 205 237 205 191 196 278 283 193 179 193 197 199 208 251 270 250 221 218 217 218 221 220 225 181
167 176 174 171 167 177 185 185 182 174 171 172 172 186 174 170 163 159 160 166 167 172 167 179 173 165 186 190 194 200 239 240 161 170 158 157 159 164 194 167 178 173 158 176 165 185 194 192 159 154 201 183 205 184 164 204 239 210 207 209 205 202 222 211 201 189 205 242 238 174 180 200 200 211 236 245 274 241 217 222 221 228 227 226 224
194 173 172 171 171 175 180 189 186 182 176 176 174 184 173 169 163 161 163 166 176 178 174 174 171 175 194 187 176 191 235 235 195 158 153 154 163 172 189 180 179 166 167 167 150 169 200 96 84 49 342 343 331 250 176 209 248 239 200 210 198 223 233 210 200 191 200 222 242 180 190 191 199 209 221 234 254 265 224 232 230 229 228 232 227
191 181 171 175 175 168 172 181 189 191 186 181 174 181 181 169 166 160 166 167 175 184 176 168 176 184 180 184 181 211 226 224 206 159 147 145 164 170 182 178 178 158 150 137 141 162 187 162 172 157 235 234 243 246 196 224 258 267 232 224 195 208 227 232 216 213 218 222 235 236 188 197 198 204 218 225 234 250 245 238 242 233 237 235 233
181 185 185 179 175 170 167 177 182 191 179 194 186 177 182 173 173 167 164 166 174 183 187 174 177 180 170 176 176 218 242 238 210 167 169 165 168 174 181 182 175 150 141 148 157 190 197 200 184 177 204 214 217 223 209 209 215 236 240 201 203 220 235 234 226 221 222 229 226 239 253 225 217 212 211 217 222 227 235 251 269 263 235 237 232
185 187 186 178 179 176 169 168 175 185 181 193 205 181 178 182 175 176 166 168 175 183 189 185 176 160 167 173 174 193 244 247 247 197 173 178 178 175 187 182 171 157 161 164 171 194 203 207 205 178 197 217 204 234 220 217 220 232 231 206 209 208 235 253 246 238 235 221 219 227 230 242 232 217 219 217 215 219 225 236 244 265 249 237 234
183 184 183 180 182 179 170 168 173 182 182 186 200 208 186 182 186 182 174 170 175 178 178 183 184 170 167 175 180 174 207 238 245 234 201 195 183 171 183 186 168 166 175 174 180 198 192 199 216 203 186 207 206 223 239 220 232 247 234 211 207 209 226 228 248 248 238 205 226 225 231 229 235 245 218 212 216 216 224 226 235 236 246 251 237
183 185 184 181 184 180 175 177 171 179 178 180 191 200 207 196 191 178 174 167 174 173 179 182 192 184 170 178 179 182 194 201 201 210 217 209 189 177 185 178 166 170 180 179 184 188 203 187 212 220 205 215 218 212 232 229 223 244 242 212 224 220 235 242 245 244 215 220 225 231 226 224 224 231 235 230 220 222 221 226 227 229 228 230 231
182 185 180 180 182 179 170 178 168 175 180 177 184 193 199 206 196 182 185 171 170 171 178 186 188 190 187 180 181 186 194 197 198 196 195 201 200 198 196 185 170 176 176 185 181 187 199 199 189 226 215 207 211 219 213 210 225 232 221 224 210 226 232 234 243 242 228 219 223 233 238 237 232 229 225 233 238 243 242 231 227 228 228 224 226
177 182 179 176 181 181 171 176 180 175 178 176 173 184 187 194 199 208 198 187 166 173 180 188 185 192 201 196 189 190 193 198 195 193 192 195 201 201 200 182 174 172 179 180 196 194 193 198 214 199 222 234 227 242 266 226 234 204 212 259 231 223 224 207 226 235 234 230 234 239 239 248 244 244 237 229 237 247 253 249 230 229 227 228 227
177 179 182 179 181 183 172 181 184 176 178 181 179 179 184 189 198 201 205 192 181 170 181 186 190 194 194 201 204 195 191 192 194 186 195 198 204 201 192 188 179 181 186 197 196 195 192 193 200 190 208 224 247 222 246 94 46 308 295 247 254 233 216 201 225 232 228 235 238 236 241 242 240 241 240 238 238 242 245 246 247 235 230 227 231
188 180 185 186 182 183 180 180 180 184 183 186 182 183 187 189 186 193 190 187 180 181 182 182 186 190 194 198 204 201 196 191 189 188 190 194 202 203 194 196 186 194 198 197 197 195 192 196 188 209 201 211 231 188 202 116 258 225 260 298 283 271 235 221 233 242 229 229 223 226 232 233 237 235 238 237 241 241 244 243 244 247 240 232 230
185 186 187 184 186 189 188 178 182 185 186 184 181 188 183 182 178 182 178 183 182 181 185 180 172 180 192 198 197 202 200 197 184 188 190 196 200 202 202 194 190 187 190 201 200 201 195 196 193 196 203 214 221 200 188 177 225 178 167 19 282 309 326 280 263 248 230 232 217 227 230 232 239 235 233 233 239 240 240 240 243 243 245 245 241
184 191 187 187 189 193 192 187 181 184 187 186 184 183 179 175 175 167 178 170 186 183 179 180 182 181 191 192 201 200 204 202 190 182 192 194 194 201 202 194 189 184 186 194 198 206 202 205 203 206 183 209 210 238 199 195 198 127 296 224 262 63 305 265 253 255 214 224 213 228 224 233 238 243 236 237 241 242 244 240 242 241 242 244 244
187 187 187 188 191 192 192 190 183 183 186 184 180 170 163 170 174 176 168 185 156 180 173 187 176 185 183 191 200 196 202 204 195 185 186 190 194 199 204 198 183 185 179 190 201 210 208 206 199 199 197 208 234 228 225 196 200 202 186 105 327 275 231 285 347 270 192 220 233 227 227 227 232 235 229 238 243 245 244 240 243 246 245 242 242
197 195 189 191 186 187 188 189 188 182 183 184 179 170 170 169 168 173 173 180 181 181 192 194 192 182 191 182 192 193 196 193 188 190 187 192 201 204 208 202 187 178 185 199 208 206 212 206 204 198 207 211 223 236 236 283 216 214 221 220 209 240 244 229 25 293 352 214 225 213 228 225 226 235 231 240 240 241 236 243 240 243 243 243 241
205 195 193 187 185 182 186 188 189 186 179 177 178 174 173 176 179 183 181 184 180 202 182 181 187 199 173 180 188 190 197 199 200 195 194 197 206 209 204 195 188 187 187 194 205 210 211 209 197 196 209 203 188 231 236 221 299 266 246 249 257 248 196 258 259 306 293 276 245 232 243 218 222 230 235 232 235 239 240 235 239 241 241 238 238
186 181 192 189 185 184 182 187 185 182 180 171 179 182 179 179 177 181 182 187 190 189 185 187 181 180 194 188 179 188 190 195 198 204 207 200 200 200 194 195 200 208 193 198 205 210 202 197 190 203 208 193 193 216 233 214 209 241 191 233 243 255 254 248 250 247 274 293 284 256 235 221 213 234 226 228 228 232 240 239 240 239 239 236 235
170 176 186 190 185 179 176 176 180 178 182 174 176 183 181 178 177 174 178 190 177 188 180 185 191 184 184 185 150 161 184 184 185 190 196 191 188 192 192 195 199 203 192 197 206 203 202 201 199 203 208 211 205 219 229 229 210 237 201 237 238 246 250 244 247 180 238 269 277 275 280 222 233 245 235 225 231 230 232 239 236 236 236 238 234
127 146 160 166 174 168 169 170 180 175 177 180 174 180 179 171 174 178 176 180 171 176 160 177 180 181 204 201 187 166 159 178 188 190 194 197 196 200 203 198 198 202 194 200 201 203 206 213 214 214 211 215 207 213 228 240 239 245 236 221 199 244 255 268 239 227 245 226 257 274 275 285 282 260 216 232 231 232 235 237 240 238 235 236 234
94 106 136 159 176 175 175 179 184 174 174 178 173 178 178 176 177 177 173 173 173 165 160 168 175 180 191 193 181 188 178 187 193 205 203 200 204 195 197 205 201 203 205 202 211 209 210 215 220 218 213 210 212 216 222 229 233 239 239 232 238 218 228 237 236 214 226 245 261 263 269 257 254 279 258 227 229 233 234 234 238 236 235 234 236